www.pogodaiklimat.ru

Погода и климат >> Архив погоды >> Россия >> Якутия >> Себян-Кюель


ПОГОДА в Себян-Кюеле

  • Прогноз погоды в Себян-Кюеле
  • Монитор погоды в Себян-Кюеле

АРХИВ ПОГОДЫ в Себян-Кюеле

Время (UTC), дата Ветер
(напр.,м/с)
 
Видим.   Явления Облачность Т
(С)
Тd
(С)
f
(%)
Тe
(С)
Тes
(С)
Комфортность P
(гПа)
Po
(гПа)
Тmin
(С)
Tmax
(С)
R
(мм)
R24
(мм)
S
(см)
12 11.09 З 2 н/о н/о +0.5 -0.9 90 -3 -3 1011.6 918.9 +13.1
15 11.09 ЮЗ 1 н/о н/о +1.4 +0.4 93 -1 -1 1011.1 918.8
18 11.09 З 2 н/о н/о -1.2 -1.5 98 -5 -5 1011.9 918.6
21 11.09 З 2 н/о н/о -1.9 -2.3 97 -6 -6 1012.2 918.7
00 12.09 ЮЗ 1 50 км 8/6 1000 м
[Sc Ci fib]
+4.0 +1.7 85 +3 +4 1009.9 918.5 -2.6 0.5
03 12.09 В 1 50 км 8/8 1000 м
[Sc]
+8.4 +3.0 69 +8 +9 1007.3 917.6
06 12.09 З 2 50 км 6/6 1000 м
[Cu hum]
+12.4 +2.3 50 +12 +13 1004.4 916.1
09 12.09 З 2 50 км 6/6 1000 м
[Cu hum]
+12.2 +2.3 51 +12 +12 1003.3 915.0
12 12.09 ЮЗ 1 50 км 3/3 1500 м
[Sc]
+3.4 +0.5 81 +2 +2 1006.4 915.1 +13.4
15 12.09 штиль 0 н/о н/о +0.2 -0.3 96 -1 -1 1006.0 913.7
18 12.09 З 1 н/о н/о +1.0 +0.3 95 -1 -1 1003.3 911.6
21 12.09 З 2 н/о н/о +2.1 +1.4 95 -1 -1 999.7 908.6
00 13.09 З 1 4000 м дождь 10/10 300 м
[Sc]
+4.0 +3.0 93 0.0 2
03 13.09 З 3 4000 м дождь 10/10 300 м
[Sc]
+5.0 +3.8 92
06 13.09 В 2 10 км дождь 10/10 300 м
[Sc]
+5.8 +4.9 94
09 13.09 ЮЗ 2 10 км дождь 10/10 100 м
[Sc]
+4.9 +3.7 92 +2 +2 990.2 900.9
12 13.09 З 2 10 км дождь 10/10 480 м
[Sc]
+3.4 +2.1 91 0 0 991.4 901.5 +5.8 8
15 13.09 З 3 н/о н/о +3.1 +1.3 88 -1 -1 992.5 902.4
18 13.09 З 5 н/о н/о +1.0 -3.6 71 -5 -5 995.8 904.7
21 13.09 З 2 н/о н/о -1.1 -3.9 81 -5 -5 998.4 906.4
00 14.09 ЮЗ 6-10
{11}
50 км 4/4 1500 м
[Cu hum]
+0.2 -7.1 58 -6 -5 1000.1 908.3 -1.6 0.0
03 14.09 ЮЗ 6
{12}
50 км ясно +1.8 -8.0 48 -4 -2 1000.7 909.3
06 14.09 З 6
{12}
50 км 3/0
[Cs]
+2.2 -8.8 44 -3 -2 1001.7 910.3
09 14.09 З 4 50 км 4/0
[Cs]
+1.1 -8.7 48 -3 -3 1003.5 911.6
12 14.09 ЮЗ 2 50 км 4/0
[Cs]
-2.9 -8.9 63 -7 -7 1006.0 912.7 +2.3
15 14.09 З 2 н/о н/о -7.5 -9.6 85 -12 -12 1009.9 914.7
18 14.09 З 2 н/о н/о -9.7 -11.1 89 -14 -14 1011.5 915.3
21 14.09 З 2 н/о н/о -10.5 -11.9 89 -15 -15 1012.6 916.1
00 15.09 штиль 0 50 км ясно -2.5 -7.5 68 -3 -1 1010.2 916.6 -10.7
03 15.09 ЮВ 3 50 км ясно +3.9 -6.9 45 +1 +4 1007.2 915.9
06 15.09 В 4 50 км ясно +6.0 -9.5 32 +3 +5 1005.5 915.0
09 15.09 В 2 50 км 3/0
[Ci fib]
+5.0 -9.6 34 +3 +3 1006.3 915.4
12 15.09 З 1 50 км ясно -3.1 -9.2 63 -5 -5 1010.4 916.8 +6.2
15 15.09 З 1 н/о н/о -8.9 -10.2 90 -11 -11 1013.9 917.7
18 15.09 штиль 0 н/о н/о -10.3 -11.6 90 -11 -11 1014.6 917.9
21 15.09 З 1 н/о н/о -11.5 -12.8 90 -14 -14 1015.6 918.4
00 16.09 ЮЗ 1 50 км 10/10 1000 м
[Sc]
-4.6 -8.4 75 -7 -7 1012.5 918.0 -12.6
03 16.09 ЮВ 1 50 км 10/4 1500 м
[Cu Sc Cs]
+0.6 -5.9 62 -1 +2 1010.5 917.9
06 16.09 В 3 50 км 8/0
[Cs]
+3.8 -6.5 47 +1 +2 1008.6 917.1
09 16.09 ЮВ 1 50 км 6/0
[Cs]
+3.0 -6.8 49 +2 +2 1009.7 917.9
12 16.09 З 2 50 км 6/0
[Cs]
-2.9 -6.0 79 -7 -7 1013.4 919.4 +4.7
15 16.09 Ю 1 н/о н/о -4.6 -6.2 89 -7 -7 1014.1 919.4
18 16.09 штиль 0 н/о н/о -4.0 -5.8 87 -5 -5 1013.7 919.3
21 16.09 ЮЗ 1 н/о н/о -1.9 -4.1 85 -4 -4 1012.5 918.9
00 17.09 В 2 50 км слаб. снег 10/10 1000 м
[Sc]
+0.2 -2.8 80 -3 -3 1012.3 919.4 -6.7 0.0
03 17.09 З 1 2000 м сильн. снег 10/10 1000 м
[Sc]
0.0 -0.9 94 -2 -2 1012.2 919.3
06 17.09 штиль 0 2000 м сильн. снег 10/10 1000 м
[Sc]
+0.4 -0.4 94 -1 -1 1012.1 919.3
09 17.09 В 1 2000 м сильн. снег 10/10 1000 м
[Sc]
+0.1 -0.8 94 -2 -2 1013.1 920.1
12 17.09 штиль 0 2000 м сильн. снег 10/10 1000 м
[Sc]
-0.4 -1.0 96 -2 -2 1013.7 920.5 +0.5 3
15 17.09 штиль 0 н/о н/о -0.6 -1.0 97 -2 -2 1013.2 920.0
18 17.09 штиль 0 н/о н/о -0.7 -1.2 96 -2 -2 1012.9 919.7
21 17.09 штиль 0 н/о н/о -0.8 -1.2 97 -2 -2 1012.9 919.7
00 18.09 штиль 0 2000 м сильн. снег 10/10 1000 м
[Sc]
+0.6 -0.8 90 -1 -1 1012.7 919.9 -0.9 3
03 18.09 штиль 0 2000 м сильн. снег 10/10 1000 м
[Sc]
+2.6 +0.2 84 +2 +2 1012.5 920.4
06 18.09 СВ 1 2000 м сильн. снег {ливн. осадки} 10/10 1000 м
[Sc]
+1.4 0.0 90 -1 -1 1013.4 920.8

 

Местоположение метеостанции Себян-Кюель (Якутия, Россия): широта 65.30 долгота 130.00 высота над уровнем моря 777 м.

В архиве по умолчанию представлена погода в Себян-Кюеле за последнюю неделю. Архивные данные за месяц целиком и за предыдущие месяцы, начиная с января 2011 года, Вы можете получить, выбрав интересующий диапазон дат из раскрывающегося списка и нажав кнопку "Ввод!".


*Определитесь, кто Вы:
робот инопланетянин человек

Внимание! Время в таблицах - всемирное. Для получения местного времени необходимо прибавить поправку, которая равна 9 ч.

Смотрите также архив погоды в соседних городах и на ближайших метеорологических станциях:

Погода в Сеген-Кюеле (Якутия, Россия) (145 км)
Погода в Екюччю (Якутия, Россия) (179 км)
Погода в Сангаре (Якутия, Россия) (195 км)
Погода в Батамае (Якутия, Россия) (200 км)
Погода в Сого-Хае (Якутия, Россия) (205 км)
Погода в Верхоянском Перевозе (Якутия, Россия) (240 км)
Погода в Иэме (Якутия, Россия) (269 км)
Погода в Бестяхской Звероферме (Якутия, Россия) (274 км)
Погода в Батагай-Алыте (Якутия, Россия) (276 км)
Погода в Намцах (Якутия, Россия) (288 км)

Пояснения к столбцам:

Ветер - указаны скорость ветра в м/с - средняя за 10 мин, порывы в срок и между сроками (в фигурных скобках) и направление, откуда дует ветер: С - северный, СВ - северо-восточный, В - восточный, ЮВ - юго-восточный, Ю - южный, ЮЗ - юго-западный, З - западный, СЗ - северо-западный.
Видимость - горизонтальная дальность видимости в метрах или километрах. При видимости от 1 до 10 км при отсутствии осадков обычно наблюдается дымка, при ухудшении видимости до 1 км и менее - туман. В сухую погоду видимость может ухудшаться дымом, пылью или мглою.
Явления - указаны атмосферные явления, наблюдавшиеся в срок или в последний час перед сроком; фигурными скобками обозначены явления, наблюдавшиеся между сроками (за 1-3 часа до срока); квадратными скобками обозначены град или гололедные отложения с указанием их диаметра в мм.
Облачность - указаны через наклонную черту общая и нижняя облачность в баллах и высота нижней границы облаков в метрах; квадратными скобками обозначены формы облаков: Ci - перистые, Cs - перисто-слоистые, Cc - перисто-кучевые, Ac - высококучевые, As - высокослоистые, Sc - слоисто-кучевые, Ns - слоисто-дождевые, Cu - кучевые, Cb - кучево-дождевые. Подробнее классификацию облаков см. в Атласе облаков (PDF).
T - Температура воздуха - температура, измеренная на высоте 2 м над землей.
Td - Температура точки росы - температура, при понижении до которой содержащийся в воздухе водяной пар достигнет насыщения.
f - Относительная влажность воздуха - влажноcть воздуха, измеренная на высоте 2 м над землей.
Te - Эффективная температура - температура, которую ощущает одетый по сезону человек в тени. Характеристика душности погоды. При расчете учитывается влияние влажности воздуха и скорости ветра на теплоощущения человека.
Tes - Эффективная температура на солнце - температура, которую ощущает человек, с поправкой на солнечный нагрев. Характеристика знойности погоды. Зависит от высоты солнца над горизонтом, облачности и скорости ветра. Ночью, в пасмурную погоду, а также при ветре 12 м/с и более поправка равна нулю.
P - Атмосферное давление - приведенное к уровню моря атмосферное давление.
Po - Атмосферное давление - измеренное на уровне метеостанции атмосферное давление.
Tmin - Минимальная температура - минимум температуры воздуха на высоте 2 м над землей.
Tmax - Максимальная температура - максимум температуры воздуха на высоте 2 м над землей.
R - Количество осадков - Количество выпавших осадков за период времени, мм. При наведении курсора мыши на число - период времени, за который выпало указанное количество осадков.
R24 - Количество осадков - Количество выпавших осадков за 24 часа, мм.
S - Снежный покров - Высота снежного покрова, см. При наведении курсора мыши на число - состояние снежного покрова и степень покрытия местности в баллах.